H-2A R/B (38341 NORAD) Tracking and Keplerian Element Data

This shows tracking and keplerian element data for the satellite.

Feedback or suggestion? Click here.




ElementValue
Catalog38341
NameH-2A R/B
Epoch Orbit36972
Epoch Day78.36206329
Epoch Year2019
RAAN200.6828
Inclination98.4364
Eccentricity0.0054439
Argument of Perigee258.0378
Mean Anonmoly101.4728
Mean Motion14.83859208
Decay Rate1.3E-06
L11 38341U 12025E 19078.36206329 .00000130 00000-0 22848-4 0 9997
L22 38341 98.4364 200.6828 0054439 258.0378 101.4728 14.83859208369727

Live tracking and technical data element details for H-2A R/B (NORAD 38341). H-2A R/B can be tracked NOW for your location showing map with azimuth and elevation plus other details from your city location.

Track the satellite on the map from your city or location and see movement details for azimuth, elevation, latitude, longitude, range, height, and movement on the map or in text.







IsCatalogInMostPopularTable: catalog: 38341, numindb: 209
Update: records affected: 1



GetName: 38341 H-2A R/B

Hit Count: updated at: Thu, 21 Mar 2019 01:47:29 GMT